Probability
0 0 0 1 2 3 3 3 3 5 5 6 8 8 7 6 6 6 6 6 6 7 7 7 7 8 8 7 7 5 2 1 2 3 2 2 3 2 2 1 1 1 3
0 0 0 1 2 3 4 4 4 4 4 6 8 9 7 7 7 7 7 6 6 7 7 7 7 7 7 7 6 5 3 2 2 2 1 2 2 2 2 2 2 2 4
1 3 3 3 3 4 4 5 6 7 7 8 9 9 9 8 8 8 8 6 5 7 8 8 7 5 5 6 5 3 3 3 3 3 3 2 2 2 2 2 2 3 4
5 7 8 7 5 5 6 8 9 11 13 13 11 11 11 9 9 10 10 7 6 7 8 9 10 8 6 6 6 4 4 6 7 7 5 3 3 2 2 2 1 2 2
9 10 10 10 9 8 9 10 12 15 18 18 17 15 13 12 12 13 13 11 9 8 8 10 14 14 12 11 11 9 8 9 10 10 7 5 4 4 3 2 2 1 1
12 12 12 12 13 13 12 11 13 18 21 20 20 19 17 15 15 16 16 14 11 11 12 13 16 18 17 16 15 14 13 12 12 11 9 7 6 6 5 3 2 1 1
14 14 14 15 16 17 16 14 16 22 23 22 22 23 22 18 17 17 18 17 15 15 17 19 19 20 20 19 18 17 16 15 14 13 11 10 8 8 7 6 4 2 1
16 15 15 16 17 18 19 18 20 25 25 24 26 28 27 23 19 20 20 20 20 21 22 24 25 25 23 22 21 18 18 18 16 14 13 10 8 7 7 8 6 3 3
19 16 14 15 16 17 18 19 22 25 24 23 27 30 29 26 24 23 23 24 25 25 25 26 28 29 26 25 23 20 19 20 18 16 14 10 6 5 5 6 5 4 4
20 19 17 16 15 15 16 18 21 22 21 21 24 26 26 25 26 25 25 26 26 26 26 25 27 29 27 26 23 19 17 18 18 15 12 8 5 3 3 3 4 3 2
18 20 20 18 15 13 13 15 17 19 20 20 22 25 25 26 27 28 26 25 26 25 25 24 25 26 24 22 21 16 13 15 16 13 9 7 5 4 5 6 5 4 4
18 19 20 18 15 14 13 13 12 14 16 18 19 22 26 29 32 31 28 25 25 24 23 24 24 23 20 19 19 16 13 15 15 12 9 7 7 8 10 10 8 8 8
18 19 20 19 17 17 17 15 12 11 12 14 15 18 22 28 31 31 28 25 23 22 21 22 23 20 17 17 19 18 15 15 14 13 12 10 9 10 11 11 11 10 9
21 21 22 24 22 20 19 17 15 14 14 15 16 17 19 22 24 24 23 23 22 20 18 18 19 18 17 16 17 17 17 15 13 13 13 11 8 7 8 9 10 9 8
22 23 25 27 25 20 17 16 17 18 21 22 21 19 18 19 20 19 20 21 22 20 17 16 16 16 14 13 14 15 16 15 15 15 14 11 7 4 4 6 7 7 6
22 22 25 28 25 19 16 16 17 19 23 25 24 21 19 19 20 19 21 23 23 21 18 15 16 15 12 9 8 9 12 14 15 16 16 12 7 5 4 3 2 3 3
22 21 23 26 25 21 20 20 18 19 22 25 25 23 22 22 21 21 25 27 26 23 20 19 19 17 12 6 3 3 7 12 15 17 17 14 11 10 9 5 3 3 2
21 21 22 25 26 25 25 24 23 23 25 26 27 28 28 27 25 23 25 28 27 25 22 22 22 20 14 6 1 2 6 11 15 17 17 16 15 14 13 11 9 7 6
19 18 20 24 27 28 28 27 28 30 30 30 30 30 31 31 28 26 25 26 26 24 22 22 23 24 17 7 1 2 7 12 15 16 16 16 16 14 12 12 12 11 11
15 15 17 21 26 28 27 26 27 29 30 31 31 31 31 30 27 25 25 25 24 23 22 22 24 24 19 10 2 3 9 13 14 15 15 14 12 9 7 9 12 12 12
14 15 16 19 22 23 22 21 21 24 27 28 27 27 26 25 24 23 23 22 21 21 23 23 23 23 20 12 5 3 8 12 15 16 15 12 8 4 2 5 8 9 9
17 17 18 20 21 20 18 16 16 20 23 24 23 23 22 21 22 24 23 21 20 20 20 21 22 22 20 15 7 3 5 9 14 17 15 10 5 1 0 2 4 5 5
20 19 20 21 21 19 16 15 15 17 19 21 22 22 20 21 24 27 26 23 20 19 18 19 20 21 20 15 9 5 3 5 10 14 12 7 2 1 1 1 1 2 3
18 19 20 21 21 19 16 14 14 15 16 18 20 20 19 19 21 24 25 23 20 19 18 18 19 20 19 15 10 7 5 4 7 10 8 5 3 3 5 5 4 5 6
16 17 19 21 21 19 15 13 13 14 14 15 16 17 17 16 16 19 21 19 16 15 16 17 17 17 15 12 9 7 7 6 7 9 8 8 8 8 10 11 11 11 11
14 15 17 20 21 19 14 11 11 13 13 13 13 15 15 14 14 16 16 13 11 10 12 14 16 15 12 8 6 5 5 6 6 8 11 12 12 13 14 15 15 15 14
Wind_Speed
9 9 9 9 8 8 7 7 6 6 5 4 4 3 3 2 2 1 1 1 1 1 1 1 1 1 0 0 1 1 2 1 1 2 1 2 2 1 1 1 1 3 3
9 10 10 10 10 9 8 8 7 6 6 4 3 2 1 1 1 1 1 1 1 1 2 1 1 1 0 0 0 1 1 0 1 2 2 2 3 2 2 2 2 1 2
9 10 10 10 10 10 10 8 7 7 6 5 4 3 3 3 2 2 2 2 2 2 1 1 2 1 2 1 1 1 2 1 1 1 2 2 1 1 2 1 1 1 1
9 10 11 11 11 10 9 9 8 7 7 6 5 5 4 3 2 2 2 2 2 2 2 2 2 2 1 0 2 1 2 2 2 1 1 2 2 2 1 2 2 1 1
9 10 10 11 10 10 9 8 8 7 7 6 6 5 4 3 3 2 2 2 3 3 2 2 2 2 2 1 1 0 3 2 2 1 1 1 2 3 3 2 1 2 2
7 8 9 8 9 9 9 9 8 8 7 7 6 6 5 4 3 3 2 3 2 3 3 2 2 2 2 1 2 2 3 2 2 2 2 2 2 2 2 3 3 2 1
8 8 9 9 9 9 9 9 9 8 8 8 7 6 6 6 5 4 3 3 2 2 3 2 2 2 2 2 2 3 2 2 2 3 3 2 3 3 3 3 3 2 1
8 8 8 8 8 8 8 8 8 8 7 7 7 6 6 5 4 4 3 3 2 2 2 3 3 3 3 3 3 3 3 2 3 3 2 3 3 3 3 3 3 3 2
7 7 7 7 8 7 7 7 8 7 7 7 7 6 6 5 4 4 4 3 2 2 3 3 3 3 3 3 2 1 1 1 2 2 2 3 2 3 3 3 4 4 4
6 6 6 6 7 7 6 6 6 6 6 6 6 5 5 5 5 4 3 3 3 2 3 3 3 3 3 3 2 2 1 1 1 1 2 3 3 2 3 3 3 4 5
6 6 6 6 6 6 6 6 5 6 5 5 5 4 5 5 5 5 4 4 3 3 3 3 3 3 3 3 3 2 2 3 2 2 2 2 3 3 3 3 3 4 4
5 6 6 6 6 6 6 6 5 5 4 4 5 5 4 4 5 5 5 5 4 4 5 4 4 4 3 3 3 3 3 3 3 2 2 2 2 2 3 2 3 3 3
5 5 5 5 5 4 4 4 4 4 5 5 5 5 5 4 4 4 4 4 5 4 4 4 4 4 4 4 4 3 3 3 3 3 3 2 3 3 2 3 3 3 2
5 5 5 4 4 4 4 3 3 4 4 5 5 5 4 4 4 4 4 4 4 5 4 4 4 4 5 4 4 4 4 3 3 3 3 3 3 2 2 2 3 3 3
4 4 4 4 3 3 4 4 3 3 4 4 4 4 3 4 4 4 4 4 4 4 4 4 4 4 5 4 3 4 4 4 4 3 3 3 2 2 3 3 2 2 3
4 3 3 3 3 3 4 4 4 5 5 4 4 3 3 3 4 4 4 4 4 4 4 4 4 5 3 3 3 4 4 4 4 4 3 3 3 3 3 2 3 4 4
3 3 3 3 3 4 4 5 4 4 4 4 4 4 4 4 3 3 3 4 4 4 4 4 4 4 3 4 4 4 5 4 4 3 3 4 2 3 3 4 5 4 4
3 3 3 3 3 3 4 4 4 4 4 4 4 4 4 4 4 3 3 3 3 4 4 4 4 4 4 5 5 5 6 5 5 4 4 4 3 3 3 4 3 4 3
2 2 2 2 2 3 3 3 3 3 3 3 3 3 4 4 4 4 4 4 3 4 4 4 4 4 4 5 6 5 5 4 5 5 5 5 4 1 3 5 4 4 3
3 2 2 3 2 2 2 3 3 3 3 2 3 3 3 4 4 4 4 3 3 4 4 3 3 4 4 4 6 6 5 5 5 4 5 4 3 2 3 5 5 5 4
4 3 3 3 2 2 2 2 2 2 2 2 2 3 3 4 3 3 3 3 4 4 4 3 3 3 4 4 6 6 5 5 5 4 4 3 5 4 4 6 6 4 5
5 4 3 3 3 2 2 1 1 0 1 2 3 3 3 3 3 3 3 3 4 4 4 3 3 3 3 3 4 6 7 6 6 5 4 2 6 6 6 6 4 3 6
4 4 4 4 3 3 2 1 1 1 1 2 2 2 3 3 3 3 4 4 4 3 3 3 3 3 3 3 5 7 8 7 6 4 2 1 5 6 7 7 6 6 6
3 4 3 3 3 3 2 2 1 1 1 1 2 2 3 3 2 3 3 3 3 3 3 4 4 3 3 3 3 4 5 6 7 5 3 5 6 6 4 5 7 6 5
3 3 3 2 2 2 2 2 2 1 1 1 1 2 2 2 2 2 1 2 2 1 3 3 3 4 4 1 2 3 3 3 3 3 4 4 4 5 5 4 4 5 5
3 2 2 2 2 2 2 2 2 1 1 1 1 2 2 1 2 1 1 0 1 1 2 2 4 2 1 1 2 2 3 3 3 5 5 5 5 5 5 4 4 4 5
Wind_Direction
187 185 188 188 186 186 187 188 190 182 189 192 198 189 183 187 181 189 163 199 236 193 246 275 160 270 276 296 227 212 173 206 242 253 220 179 173 151 158 194 176 164 176
187 187 191 193 194 190 192 190 190 187 192 186 196 198 201 199 192 179 152 216 212 229 205 247 246 233 284 216 244 241 275 218 205 267 268 214 161 166 134 156 175 173 178
194 190 193 196 198 196 195 194 192 188 191 190 192 191 190 206 186 180 169 194 207 210 250 242 274 258 246 183 238 230 238 248 215 272 295 293 22 129 151 151 140 166 190
198 195 193 196 198 197 193 191 190 190 187 192 201 204 205 208 204 200 167 171 192 207 206 213 228 254 272 184 239 179 237 246 247 185 255 299 341 290 186 183 158 181 216
200 195 194 194 195 191 188 184 185 188 187 194 197 206 212 211 200 190 172 194 178 199 209 202 205 219 244 256 292 255 256 250 266 269 230 229 221 251 273 264 228 205 200
188 187 187 186 188 186 186 183 182 187 187 194 200 207 214 216 210 200 191 200 189 192 188 195 204 219 237 227 237 237 227 264 289 290 285 268 265 261 262 265 257 253 224
178 177 180 181 184 186 187 184 183 186 187 193 199 205 212 210 207 213 206 223 215 196 182 197 200 214 217 226 232 225 249 239 243 255 267 275 278 284 282 282 277 272 247
173 175 177 178 179 180 183 182 184 186 186 191 197 203 209 213 207 209 227 212 231 228 182 199 203 209 218 226 223 237 229 229 237 249 269 275 272 275 273 275 279 270 253
165 167 168 171 170 174 180 183 183 184 188 191 194 200 206 217 219 215 222 219 213 213 195 203 203 206 210 223 230 241 265 250 249 247 241 266 274 263 273 270 268 275 278
159 155 157 161 163 169 173 178 180 183 190 195 202 195 201 210 219 230 229 235 232 230 211 201 199 200 199 189 202 202 194 222 241 273 308 295 290 290 265 261 262 268 274
155 151 150 152 156 163 166 168 168 176 184 193 199 202 201 207 211 214 216 216 219 216 218 216 212 198 193 191 195 213 207 215 222 241 235 261 296 288 280 268 262 260 261
147 146 144 147 158 162 163 162 169 173 180 190 192 197 197 204 210 205 205 207 206 211 212 213 210 207 201 206 206 218 221 222 226 236 245 255 261 267 281 286 279 275 270
145 148 148 151 157 157 159 161 174 176 184 189 188 188 195 200 208 208 204 203 199 202 207 207 209 210 209 213 216 218 229 228 230 232 239 250 264 270 278 275 277 271 259
146 153 153 155 157 162 162 170 180 181 184 184 182 190 199 202 202 205 207 203 199 201 208 211 210 209 214 216 221 221 225 228 231 237 245 253 262 268 265 252 258 269 273
153 155 158 161 169 173 179 179 182 186 192 187 185 191 200 202 201 204 208 203 208 210 204 206 206 209 213 211 216 227 221 221 230 236 242 246 260 319 302 300 291 272 265
165 165 164 166 178 188 190 188 189 194 191 190 194 186 189 190 195 202 205 202 204 212 212 212 211 215 213 148 189 242 234 226 230 238 244 234 209 199 209 268 303 301 276
170 171 171 180 191 198 196 196 195 193 191 196 196 186 186 182 189 201 198 202 203 205 210 218 220 223 200 168 184 219 243 236 235 237 245 251 210 202 219 209 218 238 255
176 185 183 177 183 185 187 196 185 187 196 199 197 193 191 187 186 194 202 206 206 208 213 217 222 226 204 175 190 210 228 240 239 237 236 243 246 236 250 248 236 237 230
154 173 168 151 156 159 167 177 178 177 189 196 198 198 197 199 199 200 205 207 208 208 217 217 222 224 209 179 191 213 228 229 238 240 237 240 234 213 250 247 245 245 235
105 99 100 107 106 115 159 171 175 177 189 200 205 203 202 206 207 205 208 205 208 211 217 208 217 226 227 186 191 212 235 232 234 229 228 214 234 205 228 244 249 250 254
103 103 100 100 98 112 142 164 171 187 198 199 197 189 194 202 201 203 209 211 212 214 219 212 217 225 233 198 190 207 237 245 246 242 234 207 176 208 226 253 260 265 271
101 98 96 84 77 88 118 127 147 255 220 204 201 190 197 211 183 195 207 212 217 214 212 217 231 229 227 229 202 204 228 258 253 252 249 206 175 206 227 238 244 253 260
94 91 91 86 74 66 69 70 27 317 253 223 210 202 206 214 207 201 201 202 204 221 219 220 234 241 235 211 196 205 219 238 254 266 298 232 193 207 218 219 224 232 244
92 93 94 88 81 70 51 28 6 331 269 246 229 214 205 208 208 225 214 213 216 224 233 238 241 238 237 239 226 225 218 220 234 246 218 195 200 223 233 210 215 231 245
97 93 93 86 73 68 51 24 10 347 306 259 250 247 227 210 220 232 263 251 252 268 262 264 259 252 247 259 324 282 259 256 259 260 239 228 214 219 222 225 231 236 233
110 104 98 82 68 57 45 19 2 349 325 306 293 271 255 227 230 222 238 129 240 172 221 273 283 281 299 210 226 259 277 260 239 241 237 232 231 235 234 233 236 239 246